Flight Track Log - Related Links

Times and Time Zones

All times are in EDT time to prevent confusion due to time zone crossing. See the N682RW flight status page for this flight to view local times or setup timezone preferences in your user account.

Time Position Orientation Groundspeed Altitude Reporting Facility
EDT Latitude Longitude Course Direction KTS MPH feet Rate Location/Type
02:37PM 42.2272 -83.3369 North 175 201 1,300  Level Cleveland Center
02:38PM 42.2625 -83.3328 North 219 252 3,100 3,000 Climbing Cleveland Center
02:39PM 42.3267 -83.3608 342° North 275 316 6,200 3,000 Climbing Cleveland Center
02:40PM 42.3639 -83.4553 298° West 330 380 9,200 1,983 Climbing Cleveland Center
02:41PM 42.3464 -83.5669 258° West 352 405 10,000 1,149 Climbing Cleveland Center
02:42PM 42.3156 -83.6272 235° Southwest 349 402 11,000 1,574 Climbing Cleveland Center
02:42PM 42.2933 -83.6794 240° Southwest 353 406 11,600 1,300 Climbing Cleveland Center
02:43PM 42.2500 -83.7392 226° Southwest 354 407 12,300 1,075 Climbing Cleveland Center
02:43PM 42.2056 -83.7650 203° Southwest 348 400 12,800 600 Climbing Cleveland Center
02:44PM 42.1558 -83.7597 176° South 344 396 12,900 65 Climbing Cleveland Center
02:45PM 42.0753 -83.7275 163° South 368 423 12,900 1,250 Level Cleveland Center
02:46PM 41.9822 -83.6950 165° South 362 417 15,400 2,600 Climbing Cleveland Center
02:47PM 41.8875 -83.6542 162° South 357 411 18,100 2,600 Climbing Cleveland Center
02:48PM 41.7864 -83.6131 163° South 362 417 20,600 2,450 Climbing Cleveland Center
02:49PM 41.6792 -83.5747 165° South 381 438 23,000 2,200 Climbing Cleveland Center
02:50PM 41.5658 -83.6028 190° South 393 452 25,000 1,500 Climbing Cleveland Center
02:51PM 41.4500 -83.6417 194° South 412 474 26,000 900 Climbing Cleveland Center
02:52PM 41.3417 -83.7169 208° Southwest 426 490 26,800 1,350 Climbing Cleveland Center
02:53PM 41.2372 -83.7947 209° Southwest 426 490 28,700 1,455 Climbing Cleveland Center
02:54PM 41.1036 -83.8906 208° Southwest 443 510 30,000 896 Climbing Indianapolis Center
02:55PM 40.9844 -83.9761 208° Southwest 448 516 30,700 871 Climbing Indianapolis Center
02:57PM 40.8392 -84.1088 225° Southwest  Level FlightAware Approximate
02:57PM 40.7731 -84.1350 225° Southwest 432 497 32,700  Level Indianapolis Center
02:58PM 40.6958 -84.2581 230° Southwest 433 498 33,800 629 Climbing Indianapolis Center
02:59PM 40.6167 -84.3761 229° Southwest 428 493 34,000 97 Climbing Indianapolis Center
03:00PM 40.5369 -84.4936 228° Southwest 427 491 34,000  Level Indianapolis Center
03:01PM 40.4433 -84.6336 229° Southwest 433 498 34,000  Level Indianapolis Center
03:02PM 40.3628 -84.7533 229° Southwest 434 499 34,000  Level Indianapolis Center
03:03PM 40.2825 -84.8722 229° Southwest 433 498 34,000  Level Indianapolis Center
03:04PM 40.1975 -84.9961 228° Southwest 434 499 34,000  Level Indianapolis Center
03:05PM 40.1175 -85.1142 228° Southwest 434 499 34,000 384 Level Indianapolis Center
03:06PM 40.0364 -85.2311 228° Southwest 435 501 34,800 871 Climbing Indianapolis Center
03:07PM 39.9575 -85.3511 229° Southwest 438 504 35,800 581 Climbing Indianapolis Center
03:08PM 39.9053 -85.4975 245° Southwest 446 513 36,000 97 Climbing Indianapolis Center
03:09PM 39.8414 -85.6697 244° Southwest 444 511 36,000  Level Indianapolis Center
03:10PM 39.7869 -85.8169 244° Southwest 450 518 36,000  Level Indianapolis Center
03:11PM 39.7203 -85.9483 237° Southwest 432 497 36,000  Level Indianapolis Center
03:13PM 39.6375 -86.0636 227° Southwest 431 496 36,000  Level Indianapolis Center
03:14PM 39.5000 -86.2519 227° Southwest 428 493 36,000  Level Kansas City Center
03:15PM 39.4717 -86.2886 225° Southwest 426 490 36,000  Level Indianapolis Center
03:16PM 39.3889 -86.4006 226° Southwest 428 493 36,000  Level Indianapolis Center
03:17PM 39.3069 -86.5106 226° Southwest 426 490 36,000  Level Indianapolis Center
03:18PM 39.2078 -86.6422 226° Southwest 426 490 36,000  Level Indianapolis Center
03:19PM 39.1203 -86.7603 226° Southwest 429 494 36,000  Level Indianapolis Center
03:20PM 39.0364 -86.8711 226° Southwest 431 496 36,000  Level Indianapolis Center
03:21PM 38.9514 -86.9825 226° Southwest 435 501 36,000  Level Indianapolis Center
03:22PM 38.8658 -87.0958 226° Southwest 440 506 36,000  Level Indianapolis Center
03:23PM 38.7797 -87.2094 226° Southwest 444 511 36,000  Level Indianapolis Center
03:24PM 38.6931 -87.3242 226° Southwest 449 517 36,000  Level Indianapolis Center
03:25PM 38.5867 -87.4622 225° Southwest 455 524 36,000  Level Indianapolis Center
03:26PM 38.4972 -87.5786 226° Southwest 460 529 36,000  Level Indianapolis Center
03:27PM 38.4089 -87.6939 226° Southwest 457 526 36,000  Level Indianapolis Center
03:28PM 38.3183 -87.8103 225° Southwest 463 533 36,000  Level Indianapolis Center
03:29PM 38.2272 -87.9272 225° Southwest 464 534 36,000  Level Indianapolis Center
03:30PM 38.1367 -88.0442 225° Southwest 464 534 36,000  Level Indianapolis Center
03:31PM 38.0833 -88.1144 226° Southwest 463 533 36,000  Level Kansas City Center
03:32PM 37.9911 -88.2297 225° Southwest 464 534 36,000  Level Kansas City Center
03:33PM 37.8983 -88.3458 225° Southwest 467 537 36,000  Level Kansas City Center
03:34PM 37.7881 -88.4861 225° Southwest 468 539 36,000  Level Kansas City Center
03:35PM 37.6939 -88.6047 225° Southwest 474 545 36,000  Level Kansas City Center
03:36PM 37.6064 -88.7236 227° Southwest 475 547 36,000  Level Memphis Center
03:37PM 37.5142 -88.8406 225° Southwest 475 547 36,000  Level Memphis Center
03:38PM 37.4219 -88.9544 224° Southwest 475 547 36,000  Level Memphis Center
03:39PM 37.3272 -89.0658 223° Southwest 470 541 36,000  Level Memphis Center
03:40PM 37.2347 -89.1819 225° Southwest 475 547 36,000  Level Memphis Center
03:41PM 37.1419 -89.2953 224° Southwest 475 547 36,000  Level Memphis Center
03:42PM 37.0492 -89.4133 225° Southwest 475 547 36,000  Level Memphis Center
03:43PM 36.9542 -89.5236 223° Southwest 475 547 36,000  Level Memphis Center
03:44PM 36.8631 -89.6361 225° Southwest 475 547 36,000  Level Memphis Center
03:45PM 36.7658 -89.7508 223° Southwest 475 547 36,000  Level Memphis Center
03:46PM 36.6725 -89.8653 225° Southwest 475 547 36,000  Level Memphis Center
03:47PM 36.5792 -89.9797 225° Southwest 475 547 36,000  Level Memphis Center
03:48PM 36.4814 -90.0964 224° Southwest 475 547 36,000  Level Memphis Center
03:49PM 36.3858 -90.2075 223° Southwest 475 547 36,000  Level Memphis Center
03:50PM 36.2878 -90.3236 224° Southwest 475 547 36,000  Level Memphis Center
03:51PM 36.1919 -90.4367 224° Southwest 475 547 36,000  Level Memphis Center
03:52PM 36.0958 -90.5522 224° Southwest 475 547 36,000  Level Memphis Center
03:53PM 35.9997 -90.6650 224° Southwest 480 552 36,000  Level Memphis Center
03:54PM 35.9014 -90.7797 223° Southwest 480 552 36,000  Level Memphis Center
03:55PM 35.8031 -90.8894 222° Southwest 474 545 36,000  Level Memphis Center
03:56PM 35.7086 -91.0014 224° Southwest 474 545 36,000  Level Memphis Center
03:57PM 35.6078 -91.1256 225° Southwest 474 545 36,000  Level Memphis Center
03:58PM 35.4928 -91.2036 209° Southwest 482 555 36,000  Level Memphis Center
04:00PM 35.2503 -91.2750 194° South 471 542 36,000  Level Memphis Center
04:01PM 35.1161 -91.3369 201° Southwest 477 549 36,000  Level Memphis Center
04:02PM 34.9906 -91.3914 200° South 477 549 36,000  Level Memphis Center
04:03PM 34.8650 -91.4456 199° South 477 549 36,000  Level Memphis Center
04:04PM 34.7414 -91.4994 200° South 477 549 36,000  Level Memphis Center
04:05PM 34.6283 -91.5508 201° Southwest 477 549 36,000  Level Memphis Center
04:06PM 34.5025 -91.6047 199° South 477 549 36,000  Level Memphis Center
04:07PM 34.3747 -91.6606 200° South 487 560 36,000  Level Memphis Center
04:08PM 34.2447 -91.7164 200° South 493 567 36,000  Level Memphis Center
04:09PM 34.1167 -91.7697 199° South 493 567 36,000  Level Memphis Center
04:11PM 33.8925 -91.8714 201° Southwest 485 558 36,000  Level Fort Worth Center
04:12PM 33.7631 -91.9222 198° South 478 550 36,000  Level Fort Worth Center
04:13PM 33.6403 -91.9772 200° South 478 550 36,000  Level Fort Worth Center
04:14PM 33.5175 -92.0322 200° South 478 550 36,000  Level Fort Worth Center
04:15PM 33.3944 -92.0844 200° South 478 550 36,000  Level Fort Worth Center
04:16PM 33.2672 -92.1344 198° South 478 550 36,000  Level Fort Worth Center
04:17PM 33.1442 -92.1864 199° South 483 556 36,000  Level Fort Worth Center
04:18PM 33.0192 -92.2406 200° South 478 550 36,000  Level Fort Worth Center
04:19PM 32.9228 -92.2808 199° South 478 550 36,000  Level Fort Worth Center
04:20PM 32.7894 -92.3381 200° South 473 544 36,000  Level Fort Worth Center
04:21PM 32.5853 -92.4228 199° South 456 525 36,000  Level Houston Center
04:22PM 32.4419 -92.4833 200° South 459 528 36,000  Level Houston Center
04:23PM 32.3236 -92.5325 199° South 454 522 36,000  Level Houston Center
04:24PM 32.2078 -92.5825 200° South 447 514 36,000  Level Houston Center
04:25PM 32.0886 -92.6300 199° South 452 520 36,000  Level Houston Center
04:27PM 31.9708 -92.6797 200° South 452 520 36,000  Level Houston Center
04:28PM 31.8728 -92.7950 225° Southwest 417 480 36,000  Level Houston Center
04:29PM 31.7964 -92.8969 229° Southwest 417 480 36,000  Level Houston Center
04:30PM 31.7167 -92.9967 227° Southwest 419 482 36,000  Level Houston Center
04:31PM 31.6394 -93.0967 228° Southwest 416 479 36,000  Level Houston Center
04:32PM 31.5578 -93.1958 226° Southwest 421 484 36,000  Level Houston Center
04:33PM 31.4722 -93.3053 228° Southwest 424 488 36,000  Level Houston Center
04:34PM 31.3928 -93.4053 227° Southwest 423 487 36,000  Level Houston Center
04:35PM 31.2989 -93.5239 227° Southwest 418 481 36,000  Level Houston Center
04:36PM 31.2250 -93.6133 226° Southwest 415 478 36,000 -97 Level Houston Center
04:37PM 31.1475 -93.7122 228° Southwest 415 478 35,800 -919 Descending Houston Center
04:38PM 31.0694 -93.8092 227° Southwest 413 475 34,100 -1,935 Descending Houston Center
04:39PM 30.9747 -93.9275 227° Southwest 418 481 31,800 -2,177 Descending Houston Center
04:40PM 30.8914 -94.0306 227° Southwest 435 501 29,600 -2,419 Descending Houston Center
04:41PM 30.8061 -94.1342 226° Southwest 443 510 26,800 -2,661 Descending Houston Center
04:42PM 30.7250 -94.2347 227° Southwest 444 511 24,100 -2,913 Descending Houston Center
04:43PM 30.6542 -94.3214 226° Southwest 427 491 21,800 -2,710 Descending Houston Center
04:43PM 30.6417 -94.3367 226° Southwest 431 496 21,300 -2,595 Descending Houston Center
04:43PM 30.6092 -94.3761 226° Southwest 416 479 20,200 -3,097 Descending Houston Center
04:44PM 30.5461 -94.4547 227° Southwest 424 488 18,100 -2,656 Descending Houston Center
04:44PM 30.5250 -94.4817 228° Southwest 423 487 17,500 -1,429 Descending Houston Center
04:45PM 30.4733 -94.5506 229° Southwest 396 456 16,600 -1,527 Descending Houston Center
04:46PM 30.4167 -94.6383 233° Southwest 361 415 14,700 -1,984 Descending Houston Center
04:47PM 30.3606 -94.7264 234° Southwest 346 398 12,500 -2,029 Descending Houston Center
04:48PM 30.2847 -94.8447 233° Southwest 331 381 10,100 -1,210 Descending Houston Center
04:49PM 30.2408 -94.9108 232° Southwest 325 374 10,000 -54 Descending Houston Center
04:50PM 30.1878 -94.9942 234° Southwest 323 372 10,000  Level Houston Center
04:51PM 30.1314 -95.0753 231° Southwest 326 375 10,000  Level Houston Center
04:52PM 30.0403 -95.1114 199° South 345 397 10,000 -48 Level Houston Center
04:53PM 29.9536 -95.1500 201° Southwest 336 387 9,900 -774 Descending Houston Center
04:54PM 29.8581 -95.1908 200° South 310 357 8,400 -1,536 Descending Houston Center
04:56PM 29.7781 -95.2253 200° South 308 354 6,700 -1,152 Descending Houston Center
04:57PM 29.7039 -95.2186 176° South 297 342 6,000 -581 Descending Houston Center
04:58PM 29.6514 -95.1653 139° Southeast 251 289 5,500 -884 Descending Houston Center
04:59PM 29.6033 -95.1031 132° Southeast 200 230 4,100 -703 Descending Houston Center
05:00PM 29.5769 -95.0439 117° Southeast 205 236 4,000 -50 Descending Houston Center
05:01PM 29.5392 -95.0283 160° South 216 249 4,000 -200 Level Houston Center
05:02PM 29.5183 -95.0836 247° West 196 226 3,600 -919 Descending Houston Center
05:03PM 29.5336 -95.1458 286° West 182 209 2,100 -823 Descending Houston Center
05:04PM 29.5642 -95.1872 310° West 173 199 1,900 -336 Descending Houston Center
05:05PM 29.5903 -95.2136 319° Northwest 143 165 1,400 -532 Descending Houston Center
05:06PM 29.6133 -95.2422 313° West 127 146 800 5,659 Descending Houston Center
05:07PM 29.6378 -95.2700 315° West 123 142 13,000 11,806 Climbing Houston Center

Login

Don't have an account? Register now (free) for customized features, flight alerts, and more!